Location: Unspecified
(0.0000°N, 0.0000°E)
Time: 10:49:35
(UTC+00:00)

Explorer 11/Cluster Stage 4 - Pass Details

Date: 08 October 2020
Orbit: 467 x 1258 km, 28.8° (Epoch: 28 October)

Event Time Altitude Azimuth Distance (km) Brightness Sun altitude
Rises 15:45:02 0° 234° (SW) 3,368 10.7 30.4°
Reaches altitude 10° 15:47:52 10° 231° (SW) 2,292 10.0 29.7°
Maximum altitude 15:53:06 61° 151° (SSE) 729 6.7 28.4°
Drops below altitude 10° 15:57:18 10° 70° (ENE) 1,847 8.0 27.3°
Sets 15:59:23 0° 66° (ENE) 2,658 8.8 26.8°
